Regional Weather Roundup
Issued by NWS

Home | Current Version | Previous Version | Text Only | Print | Product List | Glossary On
Versions: 1 2 3 4 5 6 7 8 9 10 11 12 13 14 15 16 17 18 19 20 21 22 23 24 25 26 27 28 29 30 31 32 33 34 35 36 37 38 39 40 41 42 43 44 45 46 47 48 49 50
000
ASUS43 KMKX 290800
RWRWI

WISCONSIN REGIONAL WEATHER ROUNDUP
NATIONAL WEATHER SERVICE MILWAUKEE/SULLIVAN WI
300 AM CDT SAT AUG 29 2015

NOTE: "FAIR" INDICATES FEW OR NO CLOUDS BELOW 12,000 FEET WITH NO
SIGNIFICANT WEATHER AND/OR OBSTRUCTIONS TO VISIBILITY.

WIZ001-002-006>008-014>016-023>028-290900-
NORTHWEST WISCONSIN

CITY           SKY/WX    TMP DP  RH WIND       PRES   REMARKS
SUPERIOR ARPT  PTCLDY    58  56  94 S6        30.01F
ASHLAND        CLOUDY    63  57  81 S5        30.06R
HAYWARD        MOCLDY    58  54  86 S3        30.06S
SIREN          CLEAR     55  54  95 CALM      30.05S
CUMBERLAND     MOCLDY    54  52  94 E3        30.06R
RICE LAKE      CLEAR     55  53  91 CALM      30.07R
CHETEK         CLEAR    N/A N/A N/A CALM      30.06R
LADYSMITH      CLEAR     54  52  95 CALM      30.08S
EAU CLAIRE     NOT AVBL
MENOMONIE      CLEAR     54  53  97 E3        30.04S
NEW RICHMOND   CLEAR     54  54  99 CALM      30.04R
OSCEOLA        CLEAR     55  55 100 E3        30.07R
$$

WIZ003>005-009-010-017-018-290900-
NORTH CENTRAL WISCONSIN

CITY           SKY/WX    TMP DP  RH WIND       PRES   REMARKS
MANITOWISH WTR MOCLDY    56  55  99 S5        30.08R
ARBOR VITAE    PTCLDY    57  54  91 CALM      30.09R
WOODRUFF       PTCLDY    57  54  91 CALM      30.09R
RHINELANDER    CLEAR     54  53  97 CALM      30.09S
EAGLE RIVER    PTCLDY    57  52  84 SW3       30.07S
LAND O LAKES   MOCLDY    58  51  77 CALM      30.10R
PHILLIPS       CLEAR     54  53  97 CALM      30.07R
TOMAHAWK       CLEAR     52  51  96 CALM      30.07F FOG
MEDFORD        CLEAR     53  53  99 CALM      30.06F
MERRILL        PTCLDY    55  55  97 SE6       30.07F
$$

WIZ029-030-035-036-043>047-290900-
CENTRAL WISCONSIN

CITY           SKY/WX    TMP DP  RH WIND       PRES   REMARKS
WAUSAU         MOCLDY    57  53  86 SE6       30.06F
MOSINEE        CLOUDY    55  54  94 E3        30.09F
MARSHFIELD     CLOUDY    57  53  86 E7        30.06F
STEVENS POINT  RAIN      55  55  98 CALM      30.09S
WAUPACA        DRIZZLE   59  58  97 CALM      30.09S
WAUTOMA        LGT RAIN  57  57 100 CALM      30.07F FOG
WISC RAPIDS    LGT RAIN  58  56  93 E5        30.07F FOG
CAMP DOUGLAS   CLOUDY    57  57 100 E7        30.04S
$$

WIZ011>013-019>022-031-037>040-048>050-290900-
NORTHEAST WISCONSIN

CITY           SKY/WX    TMP DP  RH WIND       PRES   REMARKS
ANTIGO         MOCLDY    55  54  96 S6        30.09F
SHAWANO        LGT RAIN  59  56  90 CALM      30.10F
OCONTO         CLOUDY    58  58 100 SW3       30.10S
STURGEON BAY   CLOUDY    57  54  88 S3        30.13F
GREEN BAY      LGT RAIN  58  56  93 E3        30.10F FOG
MANITOWOC      NOT AVBL
APPLETON       DRIZZLE   57  57 100 NE3       30.07F
CLINTONVILLE   DRIZZLE   55  55 100 CALM      30.09S
OSHKOSH        LGT RAIN  58  56  93 E8        30.07F FOG
$$

WIZ032>034-041-042-053>061-290900-
SOUTHWEST WISCONSIN

CITY           SKY/WX    TMP DP  RH WIND       PRES   REMARKS
LA CROSSE      CLOUDY    61  58  90 E3        30.00F
SPARTA         CLOUDY    58  56  94 E6        30.04S
VIROQUA        CLOUDY    58  58 100 E8        30.00F
BOSCOBEL       LGT RAIN  63  61  93 NE5       29.98S FOG
PRAIRIE DU CHI DRIZZLE   63  62  96 E3        29.95F
PLATTEVILLE    CLOUDY    64  64  99 SE10      29.97R
$$

WIZ056-057-062-063-064-067-068-290900-
SOUTH CENTRAL WISCONSIN

CITY           SKY/WX    TMP DP  RH WIND       PRES   REMARKS
REEDSBURG      DRIZZLE   57  57  99 E6        30.02F
BARABOO/DELLS  DRIZZLE   57  55  95 E8        30.03F
LONE ROCK      LGT RAIN  63  61  94 E9        30.00S FOG
MINERAL POINT  RAIN      64  63  94 SE6       29.98F
MADISON        RAIN      62  60  93 E7        30.02S FOG
MIDDLETON      CLOUDY    64  64  99 E5        30.02F
WATERTOWN      LGT RAIN  60  60 100 E7        30.04F
MONROE         LGT RAIN  63  61  94 SE15      30.00S
JANESVILLE     RAIN      64  63  94 SE12G18   30.00F
$$

WIZ051-052-058>065-066-070>072-290900-
SOUTHEAST WISCONSIN

CITY           SKY/WX    TMP DP  RH WIND       PRES   REMARKS
MILWAUKEE      LGT RAIN  64  62  93 E6        30.06S FOG
WAUKESHA       LGT RAIN  59  57  94 E9        30.06F
MILWAUKEE/TIMM LGT RAIN  59  55  88 E5        30.07F
RACINE         LGT RAIN  64  61  90 SE12      30.06F FOG
BURLINGTON     DRIZZLE   62  61  97 SE7       30.04F
KENOSHA        LGT RAIN  66  63  90 SE12      30.04F FOG
FOND DU LAC    LGT RAIN  58  57  97 E7        30.07F FOG
SHEBOYGAN      HVY RAIN  57  56  96 NE5       30.09F FOG
WEST BEND      RAIN      55  54  94 NE9       30.06F
JUNEAU         RAIN      58  57  97 E5        30.07S
$$

LSZ147-162-290900-
LAKE SUPERIOR

STATION/POSITION TIME  TEMP    WIND        PRES    WAVE
                       AIR SEA DIR/SP/G            HT/PER
                 (UTC) (F)     (DEG/KT/KT) (MB)    (FT/S)
W MID LAKE BUOY  0650   58 56  220/  6/  8 1017.2F   1/ 4
DEVILS ISLAND    0700   63     360/  8/ 11 1018.4R
PORT WING        0700   63     200/  5/ 10 1016.9S
SAXON HARBOR     0700   64     210/  3/ 16 1017.3R
$$

LMZ867-665-643>646-290900-
LAKE MICHIGAN

STATION/POSITION TIME  TEMP    WIND        PRES    WAVE
                       AIR SEA DIR/SP/G            HT/PER
                 (UTC) (F)     (DEG/KT/KT) (MB)    (FT/S)
CHAMBERS ISLAND  0700   61     200/  5/  8 1019.3F
S GREEN BAY BUOY 0700   61 62  220/ 10/ 12 1021.1
N MID LAKE BUOY  0650   63 64  240/ 16/ 19 1018.8R   3/ 5
NORTHPORT PIER   0700   62     240/  8/ 15 1019.3R
SISTER BAY       0719   62     270/ 12/ 14   N/A
ALGOMA LAKESHORE 0714             CALM       N/A
SHEBOYGAN LAKESH 0700   56     350/  9/ 10 1019.5S
PORT WASHINGTON  0700   58      CALM  /  3 1019.3
ATWATER BUOY     0700   54 48  320/  6/  8 1019.8R
MILWAUKEE LAKESH 0700   60      10/  5/  6   N/A
S MID LAKE BUOY  0650   68 68   80/ 12/ 12 1018.2F
KENOSHA   LAKESH 0700   58     140/  7/ 11 1017.6F
$$

TC  - TEMPERATURE IN CELSIUS
VSB - VISIBILITY IN STATUTE MILES
WCI - WIND CHILL INDEX
HX  - HEAT INDEX




USA.gov is the U.S. government's official web portal to all federal, state and local government web resources and services.